[[{"header":{"parameterUnit":"m.s-1","parameterCategory":1,"la1":30.2991,"la2":30.254,"lo1":-89.0895,"lo2":-89.0444,"dy":0.0017,"dx":0.0017,"nx":28,"ny":28,"refTime":"2025-08-07T03:00:00:Z","depth":0,"parameterNumber":2,"parameterNumberName":"U-component_of_WINDS"},"data":[0,0,0,0,0,0,0,0,0,0,0,0,0,0,0,0,0,0,0,0,0,0,0,0,0,0,0,0,0,0,0,0,0,0,0,0,0,0,0,0,0,0,0,0,0,0,0,0,0,0,0,0,0,0,0,0,0,0,0.8174,0.8176,0,0.8341,0.8343,0.8345,0.8413,0.8412,0.8412,0.8412,0.8583,0.8588,0.8593,0,0,0,0,0,0,0,0,0,0,0,0,0,0.7913,0.7918,0.8174,0.8176,0.8178,0.8341,0.8343,0.8346,0.8413,0.8412,0.8412,0.8411,0.8582,0.8587,0.8593,0,0,0,0,0,0,0,0,0,0,0,0,0,0.8048,0.7919,0.8174,0.8231,0.8238,0.8341,0.8343,0.8346,0.8413,0.8412,0.8412,0.8411,0.858,0.8587,0.8594,0.8652,0,0,0.8617,0.862,0,0,0,0,0,0,0,0,0.804,0.8057,0.8221,0.8228,0.8235,0.8356,0.8314,0.8449,0.8413,0.8347,0.8412,0.8411,0.8508,0.8521,0.8554,0.866,0.8667,0.8617,0.8622,0.8625,0.8627,0,0,0,0,0,0,0,0.8031,0.8051,0.824,0.8223,0.8232,0.8249,0.8268,0.834,0.8429,0.8352,0.8358,0.8377,0.8512,0.8547,0.8558,0.867,0.8617,0.8624,0.8628,0.8631,0.8832,0.8833,0,0,0,0,0,0,0.8012,0.8042,0.8235,0.8245,0.8134,0.8254,0.8275,0.8318,0.8428,0.8444,0.8377,0.8379,0.8534,0.855,0.8565,0.864,0.8625,0.8632,0.8636,0.8831,0.8832,0.8833,0,0,0,0,0,0,0.8006,0.8028,0.8228,0.8145,0.8172,0.8259,0.8307,0.8321,0.8356,0.8446,0.8463,0.8396,0.8534,0.8554,0.863,0.8647,0.8635,0.8642,0.883,0.8831,0.8832,0.879,0,0,0,0,0,0,0.7998,0.8026,0.8048,0.8145,0.8176,0.829,0.8308,0.8325,0.8369,0.8373,0.8469,0.8484,0.8535,0.8618,0.8637,0.8657,0.8648,0.8829,0.883,0.8832,0.879,0.879,0.8789,0,0,0,0,0,0.7989,0.803,0.8049,0.8072,0.8206,0.8291,0.8308,0.8367,0.837,0.8393,0.8451,0.8481,0.8642,0.8625,0.8647,0.8669,0.8828,0.883,0.8832,0.8791,0.879,0.8789,0,0,0,0,0,0,0.7932,0.8043,0.8066,0.814,0.8205,0.8302,0.8333,0.8364,0.843,0.8431,0.8501,0.8522,0.8592,0.8638,0.8618,0.8731,0.8737,0.8744,0.8698,0.8698,0.8698,0.8685,0.8654,0,0,0,0,0,0.7928,0.7988,0.8082,0.8137,0.8169,0.8245,0.8284,0.8324,0.8394,0.8422,0.8486,0.8554,0.862,0.8662,0.8727,0.8797,0.882,0.8823,0.8823,0.8822,0.8827,0.8868,0.8871,0.884,0.884,0.8839,0,0,0.7921,0.7989,0.8022,0.8128,0.8183,0.8243,0.8268,0.8331,0.8376,0.8432,0.8507,0.8556,0.8636,0.8709,0.8745,0.875,0.884,0.8824,0.8823,0.8829,0.887,0.8873,0.8876,0.8841,0.8841,0.884,0,0,0.7938,0.7995,0.8048,0.8104,0.8187,0.8238,0.825,0.8343,0.8378,0.8454,0.8498,0.8553,0.8665,0.872,0.8763,0.8802,0.8832,0.8821,0.8819,0.8858,0.886,0.8863,0.8877,0.8881,0.8826,0.8826,0.8825,0,0.7918,0.801,0.8072,0.8132,0.8178,0.8231,0.8286,0.8336,0.8437,0.8467,0.8472,0.8614,0.8671,0.8759,0.8768,0.8801,0.8818,0.8811,0.8855,0.8858,0.8862,0.8876,0.8881,0.8824,0.8824,0.8824,0.8824,0,0.7982,0.8045,0.8078,0.8174,0.8224,0.828,0.8351,0.8393,0.8428,0.8478,0.8556,0.8627,0.8708,0.8732,0.8767,0.8824,0.8825,0.8841,0.8849,0.8862,0.8876,0.8882,0.8821,0.8822,0.8822,0.8823,0,0,0.7968,0.8098,0.8109,0.8154,0.825,0.83,0.836,0.8439,0.8475,0.8542,0.8594,0.8688,0.8704,0.8753,0.8794,0.8829,0.8856,0.8841,0.8844,0.8842,0.8924,0.8911,0.8917,0.8876,0.8877,0.8878,0.8917,0,0.7998,0.8108,0.8165,0.825,0.8309,0.8361,0.8413,0.8478,0.8527,0.8585,0.8639,0.8704,0.872,0.875,0.8786,0.8844,0.8873,0.8842,0.8925,0.8928,0.8904,0.8924,0.8911,0.8945,0.8924,0.8925,0.8925,0,0.8048,0.8116,0.8206,0.8297,0.8324,0.837,0.8448,0.8502,0.8577,0.861,0.8664,0.8705,0.8771,0.8773,0.8864,0.8842,0.888,0.8913,0.8916,0.8926,0.8927,0.8935,0.8957,0.8962,0.8935,0.8934,0.8934,0,0.8029,0.8143,0.8212,0.8248,0.8355,0.8386,0.8432,0.8507,0.8551,0.8619,0.8649,0.8723,0.8764,0.8821,0.8882,0.8878,0.8967,0.8975,0.8997,0.8995,0.9013,0.9011,0.9041,0.9037,0.9037,0.9037,0.9036,0,0.8057,0.8111,0.8205,0.8247,0.8309,0.8375,0.8434,0.8484,0.855,0.8604,0.8653,0.8702,0.8779,0.8838,0.8885,0.8954,0.8972,0.9001,0.9013,0.8996,0.8993,0.9022,0.9021,0.9038,0.9038,0.9037,0.9037,0,0.8047,0.8112,0.8191,0.8286,0.8311,0.8352,0.8434,0.8477,0.8528,0.8595,0.8615,0.8695,0.8767,0.8833,0.8928,0.8961,0.903,0.9045,0.9005,0.9011,0.903,0.9027,0.908,0.909,0.9078,0.9078,0.9078,0,0.806,0.8103,0.8202,0.8242,0.8287,0.835,0.8395,0.8462,0.8507,0.8596,0.8629,0.8704,0.8768,0.8881,0.8948,0.9021,0.9039,0.9052,0.905,0.9033,0.904,0.9036,0.9041,0.9051,0.9051,0.9051,0.9051,0,0.8078,0.8108,0.8172,0.8247,0.83,0.8363,0.8427,0.8456,0.8535,0.8584,0.8658,0.8707,0.8805,0.888,0.8961,0.9009,0.9043,0.9051,0.906,0.9044,0.9019,0.9033,0.9003,0.905,0.905,0.905,0.905,0.905,0.808,0.812,0.8197,0.8267,0.8322,0.8381,0.8427,0.8484,0.8547,0.8631,0.8667,0.8742,0.8817,0.8929,0.8977,0.9037,0.9044,0.9057,0.9061,0.9063,0.906,0.9009,0.9052,0.9052,0.9053,0.9053,0.9053,0,0.81,0.8152,0.8216,0.8304,0.8359,0.8387,0.8459,0.8503,0.8569,0.8636,0.8698,0.8783,0.8856,0.8929,0.9006,0.904,0.9058,0.9058,0.9056,0.9067,0.9049,0.9034,0.9042,0.9042,0.9042,0.9042,0.9042,0.9042,0.8117,0.8187,0.8227,0.8325,0.8377,0.8451,0.849,0.8545,0.8599,0.8692,0.8752,0.88,0.8869,0.8952,0.902,0.9039,0.9065,0.9061,0.9085,0.9068,0.9068,0.9068,0.9054,0.9066,0.9066,0.9098,0.9098,0.9098]},{"header":{"parameterUnit":"m.s-1","parameterCategory":1,"la1":30.2991,"la2":30.254,"lo1":-89.0895,"lo2":-89.0444,"dy":0.0017,"dx":0.0017,"nx":28,"ny":28,"refTime":"2025-08-07T03:00:00:Z","depth":0,"parameterNumber":3,"parameterNumberName":"V-component_of_WINDS"},"data":[0,0,0,0,0,0,0,0,0,0,0,0,0,0,0,0,0,0,0,0,0,0,0,0,0,0,0,0,0,0,0,0,0,0,0,0,0,0,0,0,0,0,0,0,0,0,0,0,0,0,0,0,0,0,0,0,0,0,2.1703,2.1703,0,2.1727,2.1728,2.1728,2.1722,2.1721,2.1721,2.172,2.1744,2.1745,2.1746,0,0,0,0,0,0,0,0,0,0,0,0,0,2.1648,2.1649,2.1703,2.1703,2.1703,2.1727,2.1728,2.1728,2.1722,2.1721,2.172,2.172,2.1743,2.1744,2.1746,0,0,0,0,0,0,0,0,0,0,0,0,0,2.1672,2.1649,2.1703,2.1703,2.1703,2.1727,2.1728,2.1728,2.1722,2.1721,2.172,2.172,2.1743,2.1744,2.1746,2.177,0,0,2.1751,2.1751,0,0,0,0,0,0,0,0,2.1671,2.1674,2.1703,2.1703,2.1703,2.1721,2.1717,2.1742,2.1722,2.1715,2.172,2.1719,2.1736,2.1738,2.1745,2.1771,2.1772,2.1751,2.1752,2.1753,2.1753,0,0,0,0,0,0,0,2.1669,2.1673,2.1712,2.1703,2.1704,2.1701,2.1704,2.1722,2.1729,2.1715,2.1715,2.1718,2.1736,2.1743,2.1745,2.1773,2.1751,2.1752,2.1753,2.1754,2.182,2.182,0,0,0,0,0,0,2.1667,2.1671,2.1712,2.1713,2.1685,2.1703,2.1706,2.1716,2.1729,2.173,2.1719,2.1718,2.1741,2.1743,2.1746,2.1775,2.1753,2.1754,2.1755,2.1819,2.182,2.1821,0,0,0,0,0,0,2.1666,2.1671,2.1711,2.1692,2.1697,2.1705,2.1716,2.1717,2.1723,2.1732,2.1733,2.1724,2.174,2.1744,2.1764,2.1776,2.1755,2.1756,2.1818,2.1819,2.182,2.1833,0,0,0,0,0,0,2.1665,2.167,2.168,2.1692,2.1698,2.1729,2.1717,2.1718,2.1726,2.1725,2.1737,2.1738,2.174,2.1762,2.1766,2.1777,2.1758,2.1817,2.1818,2.182,2.1832,2.1835,2.1837,0,0,0,0,0,2.1663,2.1683,2.1681,2.1686,2.1711,2.173,2.1733,2.1735,2.1727,2.1737,2.1742,2.1738,2.1774,2.1764,2.1768,2.1781,2.1816,2.1818,2.182,2.1831,2.1834,2.1837,0,0,0,0,0,0,2.1671,2.1684,2.1683,2.1707,2.1718,2.1729,2.1741,2.1739,2.1751,2.1749,2.1751,2.1753,2.1774,2.1779,2.1768,2.1804,2.1794,2.1796,2.18,2.1804,2.1806,2.1805,2.1759,0,0,0,0,0,2.1676,2.1691,2.1702,2.1723,2.1728,2.1734,2.1742,2.1743,2.1753,2.1757,2.1764,2.1773,2.1787,2.1796,2.1808,2.1832,2.1834,2.1843,2.1846,2.1848,2.185,2.1863,2.1866,2.1826,2.1826,2.1826,0,0,2.1686,2.1695,2.1705,2.1725,2.1733,2.1747,2.1737,2.1754,2.1764,2.1759,2.1779,2.1784,2.1795,2.1817,2.1828,2.1822,2.1861,2.185,2.1852,2.1853,2.1865,2.1868,2.1872,2.1828,2.1827,2.1827,0,0,2.1713,2.1721,2.1739,2.1748,2.176,2.1764,2.1768,2.1779,2.1783,2.1803,2.1799,2.1812,2.1835,2.1842,2.1849,2.1878,2.1874,2.1882,2.1896,2.1908,2.1911,2.1914,2.1924,2.1927,2.1884,2.1884,2.1884,0,2.1724,2.1747,2.1749,2.1766,2.1774,2.177,2.1788,2.1796,2.1812,2.1817,2.1811,2.184,2.1847,2.1871,2.1878,2.1883,2.1888,2.1881,2.1911,2.1913,2.1916,2.1925,2.1929,2.1885,2.1885,2.1885,2.1885,0,2.1759,2.1775,2.1788,2.1804,2.1814,2.1831,2.1835,2.1845,2.1844,2.1848,2.1868,2.1876,2.189,2.1896,2.1896,2.192,2.1916,2.191,2.19,2.1921,2.1929,2.1933,2.1886,2.1886,2.1886,2.1885,0,0,2.1792,2.1809,2.1814,2.182,2.1833,2.1845,2.1862,2.1876,2.1884,2.1895,2.1908,2.1928,2.1922,2.193,2.193,2.1941,2.1963,2.1934,2.1934,2.1939,2.1989,2.1993,2.1997,2.196,2.1961,2.1961,2.1988,0,2.182,2.185,2.1852,2.1878,2.1893,2.1889,2.1903,2.1913,2.1916,2.1928,2.1932,2.1946,2.1938,2.1943,2.1953,2.1958,2.1973,2.1956,2.1972,2.1973,2.197,2.2002,2.2006,2.2031,2.1991,2.1992,2.1992,0,2.1856,2.1868,2.1896,2.1907,2.1913,2.1926,2.1939,2.195,2.196,2.1962,2.1971,2.1969,2.1985,2.1974,2.1996,2.1984,2.1991,2.1994,2.1995,2.1997,2.1984,2.2004,2.2039,2.2042,2.1998,2.1997,2.1997,0,2.1877,2.19,2.192,2.1926,2.1939,2.1948,2.1953,2.1962,2.1971,2.1982,2.1987,2.1999,2.2006,2.2016,2.2017,2.2009,2.2039,2.2028,2.204,2.204,2.2047,2.2047,2.2083,2.2051,2.2051,2.2051,2.2051,0,2.1907,2.1924,2.1929,2.1942,2.1961,2.1962,2.1981,2.1986,2.1994,2.2006,2.2004,2.2015,2.2017,2.2029,2.203,2.2047,2.2051,2.2052,2.2052,2.2052,2.2052,2.2057,2.2055,2.2052,2.2052,2.2052,2.2052,0,2.1934,2.1938,2.1959,2.197,2.1973,2.1986,2.1994,2.2006,2.2009,2.2025,2.2029,2.2034,2.2047,2.205,2.2066,2.2067,2.2087,2.2086,2.2084,2.2084,2.2097,2.2095,2.2138,2.2143,2.2108,2.2108,2.2108,0,2.1953,2.1966,2.1978,2.1986,2.1993,2.2006,2.2015,2.2016,2.2025,2.2037,2.2046,2.206,2.2071,2.2093,2.2097,2.2109,2.2108,2.2122,2.211,2.2109,2.2108,2.2107,2.2108,2.2124,2.2124,2.2125,2.2125,0,2.1986,2.1988,2.2,2.2013,2.2024,2.2034,2.2044,2.2051,2.2053,2.2063,2.2077,2.2086,2.2102,2.2115,2.2127,2.2132,2.2129,2.2129,2.2132,2.2133,2.2131,2.2132,2.2091,2.2128,2.2128,2.2127,2.2127,2.2127,2.201,2.2021,2.2031,2.2045,2.2053,2.2062,2.2073,2.2077,2.2089,2.2103,2.2103,2.2118,2.2127,2.2143,2.2148,2.216,2.2155,2.216,2.2162,2.2163,2.2164,2.2129,2.2162,2.2162,2.2162,2.2162,2.2162,0,2.2043,2.2049,2.2062,2.2076,2.2086,2.2083,2.2093,2.2102,2.2116,2.2124,2.2135,2.2151,2.2163,2.2169,2.2181,2.2189,2.2188,2.2192,2.2192,2.2193,2.2168,2.2163,2.2193,2.2193,2.2193,2.2193,2.2193,2.2193,2.2062,2.2081,2.2083,2.2105,2.2111,2.2126,2.2133,2.214,2.2147,2.2165,2.2176,2.2179,2.2186,2.2199,2.221,2.2211,2.2216,2.2221,2.2221,2.2198,2.2194,2.2191,2.2187,2.2222,2.2222,2.2245,2.2245,2.2245]}]]